LRBV Weather Reports


Display with metric or nautical units.
time (UTC)temp
F
wind
direction
speed
MPH
gust
MPH
rain 1hr
in
rain 24hr
in
rain mn
in
humidity
%
barometer
mb
20260504213406 50 210 8.0 0.0 0.00 0.00 0.00 76 1016.0
20260504211850 50 210 8.0 0.0 0.00 0.00 0.00 82 1016.0
20260504210350 50 210 8.0 0.0 0.00 0.00 0.00 82 1016.0
20260504203352 52 210 10.0 0.0 0.00 0.00 0.00 77 1016.0
20260504200351 52 220 11.0 0.0 0.00 0.00 0.00 82 1016.0
20260504194851 54 210 10.0 0.0 0.00 0.00 0.00 77 1016.0
20260504193351 54 210 10.0 0.0 0.00 0.00 0.00 77 1016.0
20260504191850 55 220 9.0 0.0 0.00 0.00 0.00 77 1016.0
20260504190351 55 220 9.0 0.0 0.00 0.00 0.00 77 1016.0
20260504184848 57 210 9.0 0.0 0.00 0.00 0.00 77 1016.0
20260504183401 57 210 9.0 0.0 0.00 0.00 0.00 77 1016.0
20260504181850 64 310 5.0 0.0 0.00 0.00 0.00 43 1015.0
20260504180351 64 310 5.0 0.0 0.00 0.00 0.00 43 1015.0
20260504174851 64 350 5.0 0.0 0.00 0.00 0.00 46 1015.0
20260504173351 64 350 5.0 0.0 0.00 0.00 0.00 46 1015.0
20260504171850 66 3.0 0.0 0.00 0.00 0.00 43 1015.0
20260504170350 66 3.0 0.0 0.00 0.00 0.00 43 1015.0
20260504160351 70 2.0 0.0 0.00 0.00 0.00 40 1015.0
20260504150350 70 130 7.0 0.0 0.00 0.00 0.00 40 1015.0
20260504140351 68 360 5.0 0.0 0.00 0.00 0.00 40 1015.0
20260504130350 68 300 10.0 0.0 0.00 0.00 0.00 40 1016.0
20260504110351 66 300 14.0 0.0 0.00 0.00 0.00 43 1017.0
20260504100350 64 290 14.0 0.0 0.00 0.00 0.00 43 1017.0
20260504081850 59 290 17.0 0.0 0.00 0.00 0.00 48 1018.0
20260504080350 59 290 17.0 0.0 0.00 0.00 0.00 48 1018.0
20260504070352 57 300 15.0 0.0 0.00 0.00 0.00 44 1018.0
20260504050400 46 2.0 0.0 0.00 0.00 0.00 71 1018.0
20260504044851 43 340 2.0 0.0 0.00 0.00 0.00 81 1018.0
20260504043350 43 340 2.0 0.0 0.00 0.00 0.00 81 1018.0
20260504041851 41 3.0 0.0 0.00 0.00 0.00 81 1018.0
20260504040350 41 3.0 0.0 0.00 0.00 0.00 81 1018.0
20260504034851 43 2.0 0.0 0.00 0.00 0.00 76 1018.0
20260504033350 43 2.0 0.0 0.00 0.00 0.00 76 1018.0
20260504031847 41 2.0 0.0 0.00 0.00 0.00 76 1018.0
20260504030513 41 2.0 0.0 0.00 0.00 0.00 76 1018.0
20260504024848 41 270 7.0 0.0 0.00 0.00 0.00 76 1018.0
20260504023350 41 270 7.0 0.0 0.00 0.00 0.00 76 1018.0
20260504021847 39 270 6.0 0.0 0.00 0.00 0.00 81 1019.0
20260504020351 39 270 6.0 0.0 0.00 0.00 0.00 81 1019.0
20260504014850 41 7.0 0.0 0.00 0.00 0.00 70 1019.0
20260504013355 41 7.0 0.0 0.00 0.00 0.00 70 1019.0
20260504012012 43 310 6.0 0.0 0.00 0.00 0.00 71 1018.0
20260504010351 43 310 6.0 0.0 0.00 0.00 0.00 71 1018.0
20260504005012 43 280 3.0 0.0 0.00 0.00 0.00 71 1018.0
20260504003350 43 280 3.0 0.0 0.00 0.00 0.00 71 1018.0
20260504001850 45 230 7.0 0.0 0.00 0.00 0.00 71 1018.0
20260504000351 45 230 7.0 0.0 0.00 0.00 0.00 71 1018.0
20260503234927 45 230 8.0 0.0 0.00 0.00 0.00 66 1018.0
20260503233350 45 230 8.0 0.0 0.00 0.00 0.00 66 1018.0
20260503231851 45 220 8.0 0.0 0.00 0.00 0.00 66 1018.0
20260503230402 45 220 8.0 0.0 0.00 0.00 0.00 66 1018.0
20260503224847 45 220 8.0 0.0 0.00 0.00 0.00 66 1018.0
20260503223359 45 220 8.0 0.0 0.00 0.00 0.00 66 1018.0
20260503221907 45 220 9.0 0.0 0.00 0.00 0.00 61 1019.0
20260503220432 45 220 9.0 0.0 0.00 0.00 0.00 61 1019.0
20260503214854 43 220 7.0 0.0 0.00 0.00 0.00 66 1019.0